Time,TemperatureF,DewpointF,PressureIn,WindDirection,WindDirectionDegrees,WindSpeedMPH,WindSpeedGustMPH,Humidity,HourlyPrecipIn,Conditions,Clouds,dailyrainin,SoftwareType,DateUTC
2013-02-03 00:02:00,37.0,30.0,30.12,NW,313,7.0,-999.0,75,-99.99,,,-99.99,,2013-02-03 06:02:00,
2013-02-03 00:11:00,37.0,30.0,30.12,NW,313,7.0,-999.0,75,-99.99,,,-99.99,,2013-02-03 06:11:00,
2013-02-03 00:21:00,37.0,30.0,30.12,NNW,346,7.0,-999.0,75,-99.99,,,-99.99,,2013-02-03 06:21:00,
2013-02-03 00:32:00,36.0,29.0,30.14,North,360,8.0,-999.0,74,-99.99,,,-99.99,,2013-02-03 06:32:00,
2013-02-03 00:41:00,36.0,29.0,30.14,North,360,8.0,-999.0,74,-99.99,,,-99.99,,2013-02-03 06:41:00,
2013-02-03 00:52:00,36.0,29.0,30.14,WNW,296,8.0,-999.0,75,-99.99,,,-99.99,,2013-02-03 06:52:00,
2013-02-03 01:01:00,34.0,28.0,30.14,North,5,4.0,-999.0,77,-99.99,,,-99.99,,2013-02-03 07:01:00,
2013-02-03 01:11:00,34.0,28.0,30.14,North,5,4.0,-999.0,77,-99.99,,,-99.99,,2013-02-03 07:11:00,
2013-02-03 01:21:00,32.0,27.0,30.14,NNW,335,3.0,-999.0,81,-99.99,,,-99.99,,2013-02-03 07:21:00,
2013-02-03 01:31:00,32.0,27.0,30.15,NW,320,5.0,-999.0,83,-99.99,,,-99.99,,2013-02-03 07:31:00,
2013-02-03 01:41:00,32.0,27.0,30.15,NW,320,5.0,-999.0,83,-99.99,,,-99.99,,2013-02-03 07:41:00,
2013-02-03 01:52:00,31.0,26.0,30.16,NNW,335,6.0,-999.0,83,-99.99,,,-99.99,,2013-02-03 07:52:00,
2013-02-03 02:01:00,31.0,25.0,30.17,NNW,346,10.0,-999.0,79,-99.99,,,-99.99,,2013-02-03 08:01:00,
2013-02-03 02:11:00,31.0,25.0,30.17,NNW,346,10.0,-999.0,79,-99.99,,,-99.99,,2013-02-03 08:11:00,
2013-02-03 02:22:00,31.0,23.0,30.18,NNW,327,13.0,-999.0,71,-99.99,,,-99.99,,2013-02-03 08:22:00,
2013-02-03 02:32:00,31.0,23.0,30.18,NW,324,12.0,-999.0,71,-99.99,,,-99.99,,2013-02-03 08:32:00,
2013-02-03 02:41:00,31.0,23.0,30.18,NW,324,12.0,-999.0,71,-99.99,,,-99.99,,2013-02-03 08:41:00,
2013-02-03 02:52:00,31.0,23.0,30.18,NNW,331,11.0,-999.0,71,-99.99,,,-99.99,,2013-02-03 08:52:00,
2013-02-03 03:02:00,30.0,22.0,30.18,NW,304,10.0,-999.0,71,-99.99,,,-99.99,,2013-02-03 09:02:00,
2013-02-03 03:11:00,30.0,22.0,30.18,NW,304,10.0,-999.0,71,-99.99,,,-99.99,,2013-02-03 09:11:00,
2013-02-03 03:21:00,30.0,22.0,30.18,NW,321,8.0,-999.0,72,-99.99,,,-99.99,,2013-02-03 09:21:00,
2013-02-03 03:31:00,29.0,21.0,30.18,NW,304,9.0,-999.0,72,-99.99,,,-99.99,,2013-02-03 09:31:00,
2013-02-03 03:41:00,29.0,21.0,30.18,NW,304,9.0,-999.0,72,-99.99,,,-99.99,,2013-02-03 09:41:00,
2013-02-03 03:52:00,29.0,21.0,30.17,NW,317,8.0,-999.0,72,-99.99,,,-99.99,,2013-02-03 09:52:00,
2013-02-03 04:01:00,28.0,20.0,30.17,WNW,292,8.0,-999.0,73,-99.99,,,-99.99,,2013-02-03 10:01:00,
2013-02-03 04:11:00,28.0,20.0,30.18,North,350,8.0,-999.0,73,-99.99,,,-99.99,,2013-02-03 10:11:00,
2013-02-03 04:21:00,28.0,20.0,30.18,North,350,8.0,-999.0,73,-99.99,,,-99.99,,2013-02-03 10:21:00,
2013-02-03 04:31:00,28.0,21.0,30.18,NW,325,6.0,-999.0,74,-99.99,,,-99.99,,2013-02-03 10:31:00,
2013-02-03 04:42:00,28.0,21.0,30.18,NW,325,6.0,-999.0,74,-99.99,,,-99.99,,2013-02-03 10:42:00,
2013-02-03 04:52:00,27.0,20.0,30.18,North,355,7.0,-999.0,73,-99.99,,,-99.99,,2013-02-03 10:52:00,
2013-02-03 05:02:00,27.0,20.0,30.19,WNW,292,5.0,-999.0,74,-99.99,,,-99.99,,2013-02-03 11:02:00,
2013-02-03 05:11:00,27.0,20.0,30.19,WNW,292,5.0,-999.0,74,-99.99,,,-99.99,,2013-02-03 11:11:00,
2013-02-03 05:22:00,27.0,19.0,30.19,NNW,340,6.0,-999.0,71,-99.99,,,-99.99,,2013-02-03 11:22:00,
2013-02-03 05:32:00,26.0,18.0,30.19,North,350,5.0,-999.0,71,-99.99,,,-99.99,,2013-02-03 11:32:00,
2013-02-03 05:41:00,26.0,18.0,30.19,North,350,5.0,-999.0,71,-99.99,,,-99.99,,2013-02-03 11:41:00,
2013-02-03 05:52:00,26.0,19.0,30.19,North,351,2.0,-999.0,74,-99.99,,,-99.99,,2013-02-03 11:52:00,
2013-02-03 06:02:00,25.0,19.0,30.19,North,5,3.0,-999.0,76,-99.99,,,-99.99,,2013-02-03 12:02:00,
2013-02-03 06:11:00,25.0,19.0,30.19,North,5,3.0,-999.0,76,-99.99,,,-99.99,,2013-02-03 12:11:00,
2013-02-03 06:22:00,24.0,18.0,30.17,NE,40,1.0,-999.0,76,-99.99,,,-99.99,,2013-02-03 12:22:00,
2013-02-03 06:32:00,23.0,18.0,30.18,NE,40,1.0,-999.0,80,-99.99,,,-99.99,,2013-02-03 12:32:00,
2013-02-03 06:42:00,23.0,18.0,30.18,NE,40,1.0,-999.0,80,-99.99,,,-99.99,,2013-02-03 12:42:00,
2013-02-03 06:53:00,22.0,17.0,30.18,NE,40,0.0,-999.0,81,-99.99,,,-99.99,,2013-02-03 12:53:00,
2013-02-03 07:03:00,22.0,17.0,30.18,NE,40,0.0,-999.0,81,-99.99,,,-99.99,,2013-02-03 13:03:00,
2013-02-03 07:11:00,21.0,17.0,30.19,NE,40,0.0,-999.0,83,-99.99,,,-99.99,,2013-02-03 13:11:00,
2013-02-03 07:21:00,21.0,17.0,30.19,NE,40,0.0,-999.0,83,-99.99,,,-99.99,,2013-02-03 13:21:00,
2013-02-03 07:32:00,21.0,17.0,30.19,NE,40,1.0,-999.0,84,-99.99,,,-99.99,,2013-02-03 13:32:00,
2013-02-03 07:42:00,21.0,17.0,30.19,NE,40,1.0,-999.0,84,-99.99,,,-99.99,,2013-02-03 13:42:00,
2013-02-03 07:52:00,21.0,17.0,30.19,NE,40,1.0,-999.0,84,-99.99,,,-99.99,,2013-02-03 13:52:00,
2013-02-03 08:02:00,21.0,17.0,30.20,NE,40,0.0,-999.0,83,-99.99,,,-99.99,,2013-02-03 14:02:00,
2013-02-03 08:11:00,21.0,17.0,30.20,NE,40,0.0,-999.0,83,-99.99,,,-99.99,,2013-02-03 14:11:00,
2013-02-03 08:21:00,21.0,17.0,30.19,NE,40,0.0,-999.0,83,-99.99,,,-99.99,,2013-02-03 14:21:00,
2013-02-03 08:32:00,22.0,17.0,30.19,NE,40,1.0,-999.0,81,-99.99,,,-99.99,,2013-02-03 14:32:00,
2013-02-03 08:42:00,22.0,17.0,30.19,NE,40,1.0,-999.0,81,-99.99,,,-99.99,,2013-02-03 14:42:00,
2013-02-03 08:52:00,23.0,18.0,30.19,SW,219,1.0,-999.0,80,-99.99,,,-99.99,,2013-02-03 14:52:00,
2013-02-03 09:03:00,25.0,19.0,30.19,SW,222,2.0,-999.0,79,-99.99,,,-99.99,,2013-02-03 15:03:00,
2013-02-03 09:11:00,26.0,20.0,30.18,SW,222,2.0,-999.0,78,-99.99,,,-99.99,,2013-02-03 15:11:00,
2013-02-03 09:22:00,26.0,20.0,30.18,SW,222,2.0,-999.0,78,-99.99,,,-99.99,,2013-02-03 15:22:00,
2013-02-03 09:32:00,26.0,20.0,30.17,South,191,4.0,-999.0,79,-99.99,,,-99.99,,2013-02-03 15:32:00,
2013-02-03 09:42:00,26.0,20.0,30.17,South,191,4.0,-999.0,79,-99.99,,,-99.99,,2013-02-03 15:42:00,
2013-02-03 09:52:00,27.0,22.0,30.16,South,169,3.0,-999.0,80,-99.99,,,-99.99,,2013-02-03 15:52:00,
2013-02-03 10:02:00,28.0,22.0,30.15,South,187,3.0,-999.0,79,-99.99,,,-99.99,,2013-02-03 16:02:00,
2013-02-03 10:11:00,28.0,22.0,30.15,South,187,3.0,-999.0,79,-99.99,,,-99.99,,2013-02-03 16:11:00,
2013-02-03 10:22:00,29.0,23.0,30.14,South,186,3.0,-999.0,79,-99.99,,,-99.99,,2013-02-03 16:22:00,
2013-02-03 10:32:00,30.0,25.0,30.14,South,179,4.0,-999.0,80,-99.99,,,-99.99,,2013-02-03 16:32:00,
2013-02-03 10:41:00,30.0,25.0,30.14,South,179,4.0,-999.0,80,-99.99,,,-99.99,,2013-02-03 16:41:00,
2013-02-03 10:52:00,31.0,26.0,30.12,SSW,198,4.0,-999.0,80,-99.99,,,-99.99,,2013-02-03 16:52:00,
2013-02-03 11:02:00,32.0,27.0,30.12,South,184,6.0,-999.0,80,-99.99,,,-99.99,,2013-02-03 17:02:00,
2013-02-03 11:11:00,32.0,27.0,30.12,South,184,6.0,-999.0,80,-99.99,,,-99.99,,2013-02-03 17:11:00,
2013-02-03 11:21:00,32.0,26.0,30.11,South,182,6.0,-999.0,79,-99.99,,,-99.99,,2013-02-03 17:21:00,
2013-02-03 11:32:00,34.0,28.0,30.10,SSW,199,6.0,-999.0,77,-99.99,,,-99.99,,2013-02-03 17:32:00,
2013-02-03 11:42:00,34.0,28.0,30.10,SSW,199,6.0,-999.0,77,-99.99,,,-99.99,,2013-02-03 17:42:00,
2013-02-03 11:52:00,35.0,28.0,30.09,SSW,206,7.0,-999.0,74,-99.99,,,-99.99,,2013-02-03 17:52:00,
2013-02-03 12:03:00,35.0,27.0,30.08,South,169,7.0,-999.0,71,-99.99,,,-99.99,,2013-02-03 18:03:00,
2013-02-03 12:12:00,35.0,27.0,30.08,South,169,7.0,-999.0,71,-99.99,,,-99.99,,2013-02-03 18:12:00,
2013-02-03 12:23:00,36.0,27.0,30.07,SSW,207,7.0,-999.0,70,-99.99,,,-99.99,,2013-02-03 18:23:00,
2013-02-03 12:32:00,36.0,27.0,30.06,SSW,210,9.0,-999.0,69,-99.99,,,-99.99,,2013-02-03 18:32:00,
2013-02-03 12:42:00,36.0,27.0,30.06,SSW,210,9.0,-999.0,69,-99.99,,,-99.99,,2013-02-03 18:42:00,
2013-02-03 12:52:00,37.0,28.0,30.05,SSW,202,9.0,-999.0,70,-99.99,,,-99.99,,2013-02-03 18:52:00,
2013-02-03 13:02:00,38.0,28.0,30.03,SSW,202,10.0,-999.0,67,-99.99,,,-99.99,,2013-02-03 19:02:00,
2013-02-03 13:11:00,38.0,28.0,30.03,SSW,202,10.0,-999.0,67,-99.99,,,-99.99,,2013-02-03 19:11:00,
2013-02-03 13:22:00,38.0,26.0,30.02,SSW,213,9.0,-999.0,62,-99.99,,,-99.99,,2013-02-03 19:22:00,
2013-02-03 13:32:00,39.0,27.0,30.02,SW,215,10.0,-999.0,61,-99.99,,,-99.99,,2013-02-03 19:32:00,
2013-02-03 13:41:00,39.0,27.0,30.02,SW,215,10.0,-999.0,61,-99.99,,,-99.99,,2013-02-03 19:41:00,
2013-02-03 13:52:00,39.0,27.0,30.01,South,191,9.0,-999.0,62,-99.99,,,-99.99,,2013-02-03 19:52:00,
2013-02-03 14:01:00,40.0,28.0,30.00,SW,214,10.0,-999.0,61,-99.99,,,-99.99,,2013-02-03 20:01:00,
2013-02-03 14:12:00,40.0,28.0,30.00,SW,214,10.0,-999.0,61,-99.99,,,-99.99,,2013-02-03 20:12:00,
2013-02-03 14:21:00,40.0,27.0,29.99,SSW,192,10.0,-999.0,59,-99.99,,,-99.99,,2013-02-03 20:21:00,
2013-02-03 14:32:00,41.0,29.0,29.98,SW,214,9.0,-999.0,61,-99.99,,,-99.99,,2013-02-03 20:32:00,
2013-02-03 14:42:00,41.0,29.0,29.98,SW,214,9.0,-999.0,61,-99.99,,,-99.99,,2013-02-03 20:42:00,
2013-02-03 14:52:00,41.0,29.0,29.96,SSW,194,9.0,-999.0,62,-99.99,,,-99.99,,2013-02-03 20:52:00,
2013-02-03 15:03:00,41.0,29.0,29.96,South,175,10.0,-999.0,63,-99.99,,,-99.99,,2013-02-03 21:03:00,
2013-02-03 15:11:00,41.0,29.0,29.96,South,175,10.0,-999.0,63,-99.99,,,-99.99,,2013-02-03 21:11:00,
2013-02-03 15:21:00,41.0,30.0,29.94,SSW,201,10.0,-999.0,64,-99.99,,,-99.99,,2013-02-03 21:21:00,
2013-02-03 15:32:00,41.0,31.0,29.93,SSW,212,9.0,-999.0,66,-99.99,,,-99.99,,2013-02-03 21:32:00,
2013-02-03 15:42:00,41.0,31.0,29.93,SSW,212,9.0,-999.0,66,-99.99,,,-99.99,,2013-02-03 21:42:00,
2013-02-03 15:52:00,42.0,31.0,29.92,South,186,9.0,-999.0,66,-99.99,,,-99.99,,2013-02-03 21:52:00,
2013-02-03 16:01:00,42.0,31.0,29.91,SW,222,9.0,-999.0,66,-99.99,,,-99.99,,2013-02-03 22:01:00,
2013-02-03 16:11:00,42.0,31.0,29.91,SW,222,9.0,-999.0,66,-99.99,,,-99.99,,2013-02-03 22:11:00,
2013-02-03 16:21:00,42.0,31.0,29.90,SSW,193,9.0,-999.0,65,-99.99,,,-99.99,,2013-02-03 22:21:00,
2013-02-03 16:32:00,41.0,30.0,29.89,South,186,8.0,-999.0,65,-99.99,,,-99.99,,2013-02-03 22:32:00,
2013-02-03 16:41:00,41.0,30.0,29.89,South,186,8.0,-999.0,65,-99.99,,,-99.99,,2013-02-03 22:41:00,
2013-02-03 16:52:00,41.0,31.0,29.88,South,191,8.0,-999.0,68,-99.99,,,-99.99,,2013-02-03 22:52:00,
2013-02-03 17:01:00,41.0,32.0,29.87,South,185,7.0,-999.0,69,-99.99,,,-99.99,,2013-02-03 23:01:00,
2013-02-03 17:12:00,41.0,32.0,29.87,South,185,7.0,-999.0,69,-99.99,,,-99.99,,2013-02-03 23:12:00,
2013-02-03 17:22:00,40.0,31.0,29.87,South,187,7.0,-999.0,70,-99.99,,,-99.99,,2013-02-03 23:22:00,
2013-02-03 17:32:00,40.0,31.0,29.86,South,175,7.0,-999.0,71,-99.99,,,-99.99,,2013-02-03 23:32:00,
2013-02-03 17:41:00,40.0,31.0,29.86,South,175,7.0,-999.0,71,-99.99,,,-99.99,,2013-02-03 23:41:00,
2013-02-03 17:52:00,39.0,31.0,29.85,South,182,6.0,-999.0,73,-99.99,,,-99.99,,2013-02-03 23:52:00,
2013-02-03 18:01:00,38.0,31.0,29.85,SSW,196,7.0,-999.0,75,-99.99,,,-99.99,,2013-02-04 00:01:00,
2013-02-03 18:11:00,38.0,31.0,29.85,SSW,196,7.0,-999.0,75,-99.99,,,-99.99,,2013-02-04 00:11:00,
2013-02-03 18:22:00,38.0,31.0,29.85,South,187,5.0,-999.0,75,-99.99,,,-99.99,,2013-02-04 00:22:00,
2013-02-03 18:31:00,38.0,31.0,29.85,South,184,5.0,-999.0,76,-99.99,,,-99.99,,2013-02-04 00:31:00,
2013-02-03 18:41:00,38.0,31.0,29.85,South,184,5.0,-999.0,76,-99.99,,,-99.99,,2013-02-04 00:41:00,
2013-02-03 18:52:00,37.0,30.0,29.85,South,191,4.0,-999.0,77,-99.99,,,-99.99,,2013-02-04 00:52:00,
2013-02-03 19:01:00,37.0,30.0,29.85,SSW,192,3.0,-999.0,77,-99.99,,,-99.99,,2013-02-04 01:01:00,
2013-02-03 19:11:00,37.0,30.0,29.85,SSW,192,3.0,-999.0,77,-99.99,,,-99.99,,2013-02-04 01:11:00,
2013-02-03 19:21:00,37.0,31.0,29.85,SSW,193,3.0,-999.0,78,-99.99,,,-99.99,,2013-02-04 01:21:00,
2013-02-03 19:31:00,36.0,30.0,29.85,South,189,4.0,-999.0,80,-99.99,,,-99.99,,2013-02-04 01:31:00,
2013-02-03 19:41:00,36.0,30.0,29.85,South,189,4.0,-999.0,80,-99.99,,,-99.99,,2013-02-04 01:41:00,
2013-02-03 19:52:00,36.0,30.0,29.84,South,188,3.0,-999.0,80,-99.99,,,-99.99,,2013-02-04 01:52:00,
2013-02-03 20:02:00,36.0,31.0,29.84,South,184,1.0,-999.0,81,-99.99,,,-99.99,,2013-02-04 02:02:00,
2013-02-03 20:11:00,36.0,31.0,29.84,South,184,1.0,-999.0,81,-99.99,,,-99.99,,2013-02-04 02:11:00,
2013-02-03 20:21:00,36.0,31.0,29.83,South,181,1.0,-999.0,81,-99.99,,,-99.99,,2013-02-04 02:21:00,
2013-02-03 20:31:00,35.0,30.0,29.83,SSE,167,2.0,-999.0,81,-99.99,,,-99.99,,2013-02-04 02:31:00,
2013-02-03 20:41:00,35.0,30.0,29.83,SSE,167,2.0,-999.0,81,-99.99,,,-99.99,,2013-02-04 02:41:00,
2013-02-03 20:52:00,35.0,30.0,29.82,SSE,167,0.0,-999.0,83,-99.99,,,-99.99,,2013-02-04 02:52:00,
2013-02-03 21:02:00,35.0,31.0,29.81,SSE,167,2.0,-999.0,84,-99.99,,,-99.99,,2013-02-04 03:02:00,
2013-02-03 21:11:00,35.0,30.0,29.80,South,173,2.0,-999.0,83,-99.99,,,-99.99,,2013-02-04 03:11:00,
2013-02-03 21:21:00,35.0,30.0,29.80,South,173,2.0,-999.0,83,-99.99,,,-99.99,,2013-02-04 03:21:00,
2013-02-03 21:32:00,36.0,31.0,29.80,South,172,2.0,-999.0,83,-99.99,,,-99.99,,2013-02-04 03:32:00,
2013-02-03 21:41:00,36.0,31.0,29.80,South,172,2.0,-999.0,83,-99.99,,,-99.99,,2013-02-04 03:41:00,
2013-02-03 21:52:00,36.0,31.0,29.79,SSW,201,3.0,-999.0,82,-99.99,,,-99.99,,2013-02-04 03:52:00,
2013-02-03 22:01:00,36.0,31.0,29.79,South,171,3.0,-999.0,82,-99.99,,,-99.99,,2013-02-04 04:01:00,
2013-02-03 22:11:00,36.0,31.0,29.79,South,171,3.0,-999.0,82,-99.99,,,-99.99,,2013-02-04 04:11:00,
2013-02-03 22:21:00,36.0,31.0,29.78,South,187,3.0,-999.0,82,-99.99,,,-99.99,,2013-02-04 04:21:00,
2013-02-03 22:31:00,36.0,31.0,29.78,SSW,207,4.0,-999.0,82,-99.99,,,-99.99,,2013-02-04 04:31:00,
2013-02-03 22:41:00,36.0,31.0,29.78,SSW,207,4.0,-999.0,82,-99.99,,,-99.99,,2013-02-04 04:41:00,
2013-02-03 22:52:00,36.0,31.0,29.77,SSW,194,3.0,-999.0,82,-99.99,,,-99.99,,2013-02-04 04:52:00,
2013-02-03 23:03:00,36.0,31.0,29.77,SSW,202,3.0,-999.0,83,-99.99,,,-99.99,,2013-02-04 05:03:00,
2013-02-03 23:11:00,36.0,31.0,29.77,SSW,202,3.0,-999.0,83,-99.99,,,-99.99,,2013-02-04 05:11:00,
2013-02-03 23:22:00,36.0,31.0,29.76,SSW,207,4.0,-999.0,83,-99.99,,,-99.99,,2013-02-04 05:22:00,
2013-02-03 23:33:00,36.0,31.0,29.76,SSW,207,2.0,-999.0,82,-99.99,,,-99.99,,2013-02-04 05:33:00,
2013-02-03 23:42:00,36.0,31.0,29.76,SSW,207,2.0,-999.0,82,-99.99,,,-99.99,,2013-02-04 05:42:00,
2013-02-03 23:52:00,36.0,31.0,29.75,SSW,207,2.0,-999.0,82,-99.99,,,-99.99,,2013-02-04 05:52:00,